GW7005 Weather Reports


Display with metric or nautical units.
time (UTC)temp
F
wind
direction
speed
MPH
gust
MPH
rain 1hr
in
rain 24hr
in
rain mn
in
humidity
%
barometer
mb
20260905194555 103 207 0.0 2.0 0.00 0.00 0.00 37 1018.4
20260905193017 102 110 0.0 5.0 0.00 0.00 0.00 40 1018.4
20260905191524 102 68 1.0 4.0 0.00 0.00 0.00 40 1018.4
20260905190049 100 89 0.0 2.0 0.00 0.00 0.00 41 1018.9
20260905184554 99 160 0.0 2.0 0.00 0.00 0.00 44 1019.0
20260905183022 99 214 0.0 3.0 0.00 0.00 0.00 43 1019.1
20260905181521 98 91 0.0 1.0 0.00 0.00 0.00 48 1019.2
20260905180049 98 210 0.0 6.0 0.00 0.00 0.00 46 1019.4
20260905174535 98 113 0.0 1.0 0.00 0.00 0.00 47 1019.5
20260905173022 98 134 0.0 1.0 0.00 0.00 0.00 47 1019.6
20260905171530 98 96 0.0 2.0 0.00 0.00 0.00 48 1019.7
20260905170019 98 80 0.0 2.0 0.00 0.00 0.00 47 1019.9
20260905164544 97 119 0.0 2.0 0.00 0.00 0.00 49 1019.9
20260905163022 96 245 1.0 3.0 0.00 0.00 0.00 52 1020.1
20260905161520 96 91 0.0 2.0 0.00 0.00 0.00 53 1019.9
20260905160023 95 236 0.0 2.0 0.00 0.00 0.00 54 1019.8
20260905154549 94 203 0.0 1.0 0.00 0.00 0.00 57 1020.1
20260905153029 92 60 0.0 3.0 0.00 0.00 0.00 58 1020.4
20260905151533 92 108 0.0 1.0 0.00 0.00 0.00 59 1020.2
20260905150039 90 114 1.0 2.0 0.00 0.00 0.00 62 1020.2
20260905144522 88 100 0.0 1.0 0.00 0.00 0.00 67 1020.1
20260905143025 86 100 0.0 1.0 0.00 0.00 0.00 70 1020.3
20260905141527 85 100 0.0 1.0 0.00 0.00 0.00 74 1019.9
20260905140033 84 100 0.0 1.0 0.00 0.00 0.00 76 1019.9
20260905134540 82 100 0.0 1.0 0.00 0.00 0.00 80 1019.9
20260905133029 81 101 0.0 0.0 0.00 0.00 0.00 81 1019.9
20260905131515 80 100 0.0 0.0 0.00 0.00 0.00 82 1020.1
20260905130045 79 100 0.0 0.0 0.00 0.00 0.00 84 1019.9
20260905124516 78 100 0.0 0.0 0.00 0.00 0.00 84 1019.9
20260905123019 78 100 0.0 0.0 0.00 0.00 0.00 84 1019.9
20260905121532 78 100 0.0 0.0 0.00 0.00 0.00 82 1019.7
20260905120020 78 100 0.0 0.0 0.00 0.00 0.00 81 1019.7
20260905114521 79 100 0.0 0.0 0.00 0.00 0.00 79 1019.4
20260905113031 79 100 0.0 0.0 0.00 0.00 0.00 79 1019.3
20260905111522 79 101 0.0 1.0 0.00 0.00 0.00 79 1019.2
20260905110030 79 101 0.0 1.0 0.00 0.00 0.00 79 1019.2
20260905104520 79 100 0.0 1.0 0.00 0.00 0.00 80 1019.0
20260905103027 78 102 0.0 0.0 0.00 0.00 0.00 82 1018.8
20260905101530 77 102 0.0 1.0 0.00 0.00 0.00 84 1018.8
20260905100020 77 102 0.0 0.0 0.00 0.00 0.00 84 1018.7
20260905094523 78 102 0.0 0.0 0.00 0.00 0.00 83 1018.6
20260905093030 78 102 0.0 0.0 0.00 0.00 0.00 82 1018.6
20260905091516 79 102 0.0 0.0 0.00 0.00 0.00 80 1018.5
20260905090017 80 102 0.0 0.0 0.00 0.00 0.00 79 1018.4
20260905084523 80 102 0.0 0.0 0.00 0.00 0.00 79 1018.4
20260905083030 80 102 0.0 1.0 0.00 0.00 0.00 79 1018.3
20260905081519 80 102 0.0 0.0 0.00 0.00 0.00 79 1018.4
20260905080049 79 102 0.0 1.0 0.00 0.00 0.00 81 1018.5
20260905074540 79 102 0.0 0.0 0.00 0.00 0.00 80 1018.3
20260905073027 79 102 0.0 0.0 0.00 0.00 0.00 78 1018.4
20260905071532 80 102 0.0 0.0 0.00 0.00 0.00 78 1018.5
20260905070017 80 102 0.0 0.0 0.00 0.00 0.00 75 1018.7
20260905064547 81 102 0.0 0.0 0.00 0.00 0.00 75 1018.9
20260905063054 81 102 0.0 0.0 0.00 0.00 0.00 73 1019.1
20260905061517 82 102 0.0 1.0 0.00 0.00 0.00 72 1019.1
20260905060048 82 102 0.0 1.0 0.00 0.00 0.00 73 1019.1
20260905054516 82 102 0.0 1.0 0.00 0.00 0.00 73 1019.3
20260905053022 82 102 0.0 1.0 0.00 0.00 0.00 74 1019.3
20260905051531 81 219 0.0 1.0 0.00 0.00 0.00 75 1019.3
20260905050035 82 219 0.0 1.0 0.00 0.00 0.00 76 1019.3
20260905044517 82 219 0.0 1.0 0.00 0.00 0.00 74 1019.3
20260905043031 83 240 1.0 4.0 0.00 0.00 0.00 74 1019.2
20260905041516 83 219 0.0 1.0 0.00 0.00 0.00 73 1019.3
20260905040021 83 244 0.0 1.0 0.00 0.00 0.00 73 1019.4
20260905034526 84 244 0.0 2.0 0.00 0.00 0.00 71 1019.6
20260905033016 83 231 0.0 1.0 0.00 0.00 0.00 71 1019.6
20260905031518 85 233 0.0 3.0 0.00 0.00 0.00 70 1019.7
20260905030024 85 257 0.0 2.0 0.00 0.00 0.00 68 1019.7
20260905024533 85 254 0.0 1.0 0.00 0.00 0.00 67 1019.7
20260905023020 85 226 0.0 0.0 0.00 0.00 0.00 67 1019.7
20260905021526 85 353 0.0 0.0 0.00 0.00 0.00 67 1019.8
20260905020033 86 220 0.0 1.0 0.00 0.00 0.00 67 1019.7
20260905014522 86 214 0.0 0.0 0.00 0.00 0.00 66 1019.7
20260905013029 87 214 0.0 1.0 0.00 0.00 0.00 64 1019.7
20260905011517 88 214 0.0 1.0 0.00 0.00 0.00 63 1019.8
20260905010052 89 231 0.0 3.0 0.00 0.00 0.00 61 1019.4
20260905004518 89 228 0.0 1.0 0.00 0.00 0.00 57 1019.3
20260905003026 90 224 0.0 1.0 0.00 0.00 0.00 58 1019.3
20260905001516 90 224 0.0 0.0 0.00 0.00 0.00 57 1019.2
20260905000023 91 224 0.0 1.0 0.00 0.00 0.00 56 1019.3